Temp_Advection
nan nan nan nan nan nan nan nan nan nan nan nan nan nan nan nan nan nan nan nan nan nan nan nan nan nan nan nan nan nan nan nan nan nan nan nan nan nan nan nan nan nan
nan -0 -0 0 0 0 0 0 0 0 0 0 -0 0 -0 -0 -0 0 0 -0 -0 0 -0 -0 -0 -0 -0 -0 -0 -0 -0 0 -0 -0 -0 -0 -0 -0 -0 -0 -0 nan
nan -0 0 0 0 0 -0 0 0 0 -0 -0 -0 -0 -0 -0 -0 0 -0 -0 0 0 -0 -0 -0 -0 -0 -0 0 0 -0 -0 -0 -0 -0 0 0 -0 0 0 0 nan
nan 0 0 -0 -0 -0 -0 -0 0 -0 -0 -0 -0 -0 -0 -0 0 -0 -0 -0 0 -0 -0 0 -0 -0 -0 -0 0 0 -0 -0 -0 -0 -0 0 0 -0 0 0 0 nan
nan 0 -0 -0 -0 -0 -0 -0 -0 -0 -0 -0 0 0 -0 0 0 -0 -0 0 -0 -0 0 -0 -0 -0 -0 -0 0 -0 -0 0 0 -0 0 0 0 -0 0 0 0 nan
nan 0 0 0 0 -0 -0 -0 -0 -0 -0 0 0 0 0 0 0 -0 0 0 -0 0 0 -0 -0 0 0 0 0 -0 0 0 0 -0 -0 0 -0 -0 0 0 0 nan
nan 0 1 0 -0 -0 -0 -0 -0 -0 -0 0 -0 -0 0 0 -0 0 0 0 0 0 0 -0 -0 0 0 0 -0 -0 0 0 0 -0 -0 -0 -0 -0 0 0 0 nan
nan 0 0 -0 -0 -0 -0 -0 0 -0 0 -0 -0 -0 0 -0 0 0 0 -0 0 0 -0 -0 -0 0 0 -0 -0 -0 -0 0 0 -0 -0 -0 -0 0 0 0 -0 nan
nan -0 -0 -0 -0 -0 -0 -0 -0 -0 0 -0 -0 0 0 -0 0 0 -0 -0 0 -0 -0 -0 -0 -0 -0 0 -0 -0 -0 0 0 -0 -0 -0 -0 0 0 -0 0 nan
nan -0 -0 -1 -0 -0 -0 -0 -0 -0 0 -0 0 0 -0 -0 0 -0 -0 -0 0 -0 -0 -0 -0 -0 0 0 -0 -0 -0 0 0 -0 -0 -0 0 0 0 0 0 nan
nan -0 -0 -0 -0 -0 -0 -0 -0 -0 -0 0 0 -0 -0 -0 0 -0 -0 0 -0 -0 -0 -0 -0 0 0 0 0 -0 -0 -0 0 0 -0 -0 0 0 0 0 0 nan
nan -0 -0 -0 -0 -0 -0 -0 -0 -0 -0 0 0 -0 -0 -0 -0 -0 -0 0 -0 -0 0 0 0 0 0 0 0 -0 -0 -0 0 0 0 0 0 0 -0 0 0 nan
nan 0 0 0 0 -0 -0 -0 -0 -0 -0 0 0 -0 -0 0 0 0 -0 0 0 -0 -0 0 0 0 0 -0 -0 -0 -0 0 0 0 0 0 0 -0 -0 0 0 nan
nan 0 0 0 0 0 0 0 0 0 0 0 0 0 -0 0 0 0 0 0 0 0 -0 0 0 0 0 0 0 -0 0 0 0 0 0 0 0 -0 -0 -0 0 nan
nan 0 0 0 0 0 0 0 0 0 0 0 0 0 0 0 0 0 0 -0 0 0 -0 -0 0 0 0 0 0 0 0 -0 -0 -0 -0 0 0 -0 -0 -0 0 nan
nan -0 0 0 0 0 0 0 0 0 0 0 0 0 0 0 1 1 0 -0 0 0 -0 0 0 0 -0 0 0 -0 -0 -0 -0 -0 -0 -0 -0 -0 -0 -0 -0 nan
nan -0 0 0 0 0 0 0 0 0 0 0 0 0 0 0 1 1 0 0 0 0 0 0 0 -0 -0 0 -0 -0 -0 -0 -0 -0 -0 -0 -0 -0 -0 -0 -0 nan
nan 0 0 1 0 1 0 0 0 0 0 0 0 0 0 0 0 0 0 0 -0 -0 0 0 0 -0 -0 -0 -0 -0 -0 -0 0 0 -0 -0 -0 -0 -0 0 0 nan
nan 0 0 1 0 0 0 -0 0 0 0 0 0 0 0 0 -0 0 0 0 -0 -0 0 0 0 -0 -0 -0 -0 -0 -0 -0 0 0 -0 -0 -0 -0 -0 0 0 nan
nan 0 1 0 -0 -0 -0 0 1 1 0 0 0 0 0 0 0 0 0 -0 -0 0 0 0 0 -0 -1 -0 -0 -0 -0 -0 0 0 0 -0 -0 -0 -0 -0 0 nan
nan 0 0 0 0 0 0 1 1 0 -0 -0 0 -0 0 0 0 0 0 -0 0 0 0 0 -0 -0 -0 -0 -0 -0 0 0 0 0 0 -0 -0 -0 0 -0 -0 nan
nan 0 -0 0 0 0 0 0 0 -0 -0 -0 0 0 0 0 0 0 0 0 0 0 -0 0 -0 -0 -0 -0 -0 0 1 1 1 0 -0 -0 -0 0 0 0 -0 nan
nan -0 -0 0 1 0 -0 -0 -0 0 0 1 1 1 1 1 0 0 0 0 0 0 0 0 0 0 0 0 0 0 0 0 0 0 -0 -0 -0 -0 -0 -0 0 nan
nan -0 -0 0 1 0 -0 -0 0 0 0 1 1 0 0 0 0 0 0 0 0 0 0 0 0 0 -0 0 0 0 0 0 0 0 -0 -0 -0 -0 -0 -0 0 nan
nan 0 0 0 1 0 -0 -0 0 0 1 1 0 0 0 0 0 0 0 0 0 0 0 0 0 -0 -0 0 0 -0 0 0 0 0 -0 -0 -0 0 0 0 0 nan
nan nan nan nan nan nan nan nan nan nan nan nan nan nan nan nan nan nan nan nan nan nan nan nan nan nan nan nan nan nan nan nan nan nan nan nan nan nan nan nan nan nan
Wind_Speed
17 17 16 14 12 10 11 12 11 11 10 10 11 10 11 11 9 10 10 9 9 10 10 9 8 9 9 9 10 10 10 8 9 8 7 7 7 6 5 4 5 5
18 17 16 14 13 12 12 12 10 10 10 10 11 10 11 11 10 10 9 9 9 9 10 9 9 10 9 9 10 10 10 9 9 9 9 9 8 8 8 5 4 5
19 17 16 15 14 14 13 12 11 11 12 12 11 10 9 11 10 10 11 10 10 10 10 10 10 10 10 10 9 10 10 9 9 10 9 9 9 8 8 7 5 6
19 18 17 15 13 14 13 13 13 13 13 13 12 10 9 11 10 10 12 12 11 11 10 10 11 10 10 11 9 9 10 9 9 10 10 9 8 8 9 7 6 6
19 19 18 16 14 14 14 14 14 13 13 13 12 11 10 11 10 10 12 11 11 11 11 11 11 11 11 11 9 9 10 9 9 10 9 8 7 7 8 6 6 7
18 19 19 17 17 16 14 14 14 13 12 12 12 12 12 11 11 12 11 10 11 11 11 11 11 10 11 10 9 10 9 8 8 9 8 7 7 6 6 6 7 9
18 18 18 17 17 16 13 12 12 13 13 13 13 14 14 13 13 11 10 9 10 10 12 12 11 10 10 10 9 10 10 8 8 9 9 7 7 7 7 7 8 10
17 17 17 17 16 16 14 13 13 14 14 15 15 15 15 15 13 11 11 11 11 11 13 13 12 11 11 11 10 10 9 10 10 10 8 7 8 9 8 9 9 11
17 17 17 17 16 16 16 15 15 14 14 15 14 14 15 16 15 14 14 13 13 14 14 14 13 12 12 12 11 11 10 11 11 11 9 8 9 9 9 9 10 10
17 17 16 16 17 16 16 16 15 14 15 16 15 13 15 16 15 16 16 15 16 16 15 15 15 14 13 13 13 12 11 10 12 12 11 9 9 9 9 9 9 9
16 16 16 16 16 16 16 16 16 15 16 17 16 15 16 16 15 16 16 15 16 16 15 16 16 15 15 15 15 14 11 11 12 13 11 10 10 10 11 10 10 10
17 16 16 16 16 16 16 16 16 16 16 17 18 17 17 16 15 15 15 15 16 16 15 16 16 16 16 16 15 15 14 13 12 12 12 12 13 13 12 12 12 12
19 17 16 16 16 16 16 15 16 16 16 17 18 19 18 17 17 16 15 15 16 16 16 16 17 17 17 17 16 15 15 14 13 13 13 13 14 14 13 11 11 12
19 18 16 16 16 16 16 15 16 16 17 18 19 19 18 18 18 18 17 15 15 16 16 16 17 17 17 17 17 15 15 15 13 13 13 13 13 13 12 11 12 13
20 19 18 18 17 17 17 17 17 16 15 17 19 19 18 19 19 18 18 17 16 17 17 17 17 17 17 17 17 16 16 15 15 14 14 14 13 12 12 11 12 12
20 21 22 22 21 20 19 20 20 17 15 15 17 17 16 17 18 19 20 20 20 20 20 18 17 17 17 16 17 17 16 15 16 15 13 14 14 13 13 12 12 12
20 21 23 23 24 23 22 23 23 22 19 18 18 19 16 15 17 18 19 20 19 19 19 17 17 17 17 16 16 17 16 15 15 14 13 14 15 14 14 14 13 12
20 20 22 24 25 25 24 23 24 25 24 21 20 20 19 17 16 16 16 16 16 16 17 16 15 18 18 15 14 16 17 16 14 13 12 14 13 13 13 13 13 13
21 21 22 24 25 25 26 25 24 24 25 24 22 21 20 18 17 17 18 18 16 15 15 15 17 19 19 17 15 17 18 17 15 14 14 14 13 14 14 13 13 15
23 23 24 24 24 25 27 28 27 25 24 24 24 23 23 22 20 19 21 22 21 19 16 17 19 19 17 17 17 18 20 19 17 17 16 15 14 14 14 14 15 15
22 23 25 26 26 27 28 30 29 27 26 25 25 25 25 26 25 23 23 23 24 24 23 23 23 19 16 16 15 17 21 21 19 19 19 17 16 14 13 14 15 16
19 20 22 22 22 24 26 29 31 31 31 31 30 29 28 28 27 26 26 25 25 25 25 25 25 21 18 18 15 14 18 20 18 19 20 20 18 16 15 14 15 17
17 18 18 19 19 20 22 24 26 28 29 31 32 32 31 31 29 28 28 27 27 27 26 25 24 21 18 19 18 17 18 19 20 20 20 20 18 17 18 19 18 19
12 13 14 16 17 18 18 19 19 20 21 24 26 26 27 28 29 29 29 28 28 29 28 25 23 21 18 19 22 23 22 22 23 23 22 21 19 18 20 21 21 22
3 5 7 10 13 13 14 15 16 17 17 18 19 20 21 23 25 26 28 29 30 31 29 24 21 19 18 20 23 25 25 24 24 24 23 22 21 21 21 21 21 21
4 4 5 5 5 5 5 7 10 12 13 14 16 16 17 18 20 23 26 29 32 33 30 25 22 18 17 20 23 23 23 23 23 23 24 23 22 21 20 21 22 22
Wind_Direction
183 184 185 188 189 186 192 196 198 202 201 199 200 197 200 209 210 204 204 208 217 222 219 217 217 217 217 215 215 219 222 227 229 227 225 222 214 210 216 224 228 241
189 188 190 190 187 188 195 197 199 201 200 201 200 198 207 211 207 203 206 212 220 225 221 218 220 218 218 220 220 225 230 232 233 231 227 225 225 219 213 215 239 257
195 192 191 192 193 195 194 192 198 202 200 204 205 201 209 215 209 205 212 218 223 227 222 221 225 222 220 227 228 228 234 237 235 237 238 233 231 228 215 210 221 237
199 196 191 192 197 199 196 193 201 208 203 207 212 206 209 216 212 211 216 217 221 224 221 222 225 223 224 231 233 234 237 237 237 243 249 245 238 232 226 220 213 214
199 200 195 190 195 207 209 200 202 211 211 209 211 209 212 214 212 219 220 216 221 223 221 226 226 221 227 232 231 236 240 237 242 249 250 249 245 235 229 229 230 231
199 202 198 190 195 211 216 207 203 209 211 209 210 212 218 220 218 218 214 214 226 226 220 229 231 223 227 232 227 234 240 236 243 250 245 241 244 236 224 224 242 250
201 203 201 195 197 207 211 208 206 212 215 212 214 217 219 223 224 218 212 216 226 226 222 227 230 224 225 229 227 231 235 233 241 249 246 241 243 238 225 224 244 259
201 203 202 199 200 204 208 207 206 218 225 219 218 219 218 221 223 219 219 220 219 220 223 226 228 224 221 227 230 229 230 235 243 248 245 242 242 238 232 231 240 255
199 202 204 204 204 205 208 208 208 217 227 228 225 221 221 223 219 217 222 221 217 219 221 223 230 231 225 226 232 233 230 232 239 245 245 247 250 246 240 239 241 248
200 202 203 206 208 209 211 212 212 213 219 230 231 221 226 230 221 220 229 227 223 225 223 222 227 232 232 230 230 235 239 235 235 241 245 247 252 252 249 251 251 252
202 204 206 207 209 212 213 214 216 215 219 230 234 226 228 232 224 225 231 229 228 231 228 226 228 230 234 235 229 231 239 244 243 243 244 246 249 250 249 248 248 248
200 205 208 210 211 213 215 216 218 218 220 228 235 235 232 231 229 230 232 230 232 235 233 231 232 232 235 239 234 228 229 236 243 244 244 247 248 248 248 248 249 249
200 204 208 211 214 216 216 218 220 221 221 224 232 238 239 237 234 233 237 237 234 237 238 234 233 234 236 240 239 234 231 233 239 246 248 249 253 254 252 251 255 256
205 207 211 213 215 217 218 220 222 223 222 223 229 236 242 244 240 235 236 236 233 238 241 237 235 236 237 239 240 239 237 236 239 244 246 247 253 258 256 251 253 254
211 210 213 216 218 219 220 219 220 223 225 226 230 237 243 242 236 232 231 232 233 240 243 241 238 239 239 238 238 239 238 238 240 241 243 246 250 255 259 257 256 256
212 212 211 214 217 220 221 220 217 217 220 223 226 231 240 240 232 226 226 230 233 237 241 241 238 240 243 241 239 240 238 239 242 241 242 248 247 248 256 259 257 259
219 218 215 215 216 219 223 223 221 219 217 218 219 218 221 229 230 225 226 230 230 232 237 238 235 238 245 245 243 244 243 243 246 247 249 251 248 247 254 257 258 262
223 223 221 219 218 218 220 222 224 224 223 223 224 221 217 221 225 225 229 234 232 230 235 235 233 237 241 244 248 252 254 253 249 248 254 259 260 263 267 268 268 268
230 229 228 226 223 219 220 224 227 228 229 229 230 230 228 230 230 225 227 232 231 231 233 235 239 240 237 236 241 250 258 260 254 248 250 255 261 272 280 280 277 275
239 239 238 237 233 228 227 230 231 229 232 234 235 235 234 237 238 233 231 231 231 230 227 232 243 245 238 236 239 246 255 259 254 250 252 252 251 258 269 270 272 280
238 238 239 239 238 235 233 234 234 232 234 236 238 239 238 239 239 238 238 238 236 234 230 234 243 244 242 245 245 242 246 249 248 250 257 259 252 248 258 267 269 272
229 232 235 236 237 236 235 236 237 238 239 240 242 243 243 243 242 239 240 239 237 237 234 237 243 241 238 243 241 231 232 237 242 250 259 265 262 252 250 257 262 261
228 233 234 233 235 238 237 236 237 239 239 239 242 243 244 245 244 240 238 238 237 236 234 236 242 241 234 234 235 231 232 238 245 252 258 264 266 258 248 246 250 255
231 237 237 236 238 240 239 236 236 238 238 237 237 238 240 241 241 241 241 241 239 237 235 235 237 239 236 234 234 235 238 245 251 256 260 262 263 260 254 250 251 255
180 199 212 226 233 236 236 236 236 237 236 235 235 236 239 240 240 242 242 241 239 238 234 230 230 235 237 233 232 234 239 245 251 256 261 263 261 259 258 257 258 260
104 126 156 186 206 215 222 230 234 235 234 237 240 242 243 243 241 245 246 242 240 238 230 220 221 229 231 227 227 232 238 244 250 255 260 261 260 258 257 259 262 263
Height
1572 1574 1576 1577 1578 1580 1581 1582 1583 1584 1586 1587 1588 1589 1590 1591 1593 1593 1594 1595 1595 1596 1596 1597 1597 1597 1598 1598 1599 1599 1599 1600 1601 1601 1601 1601 1602 1602 1603 1603 1603 1604
1571 1573 1575 1576 1578 1580 1581 1582 1583 1584 1585 1586 1587 1588 1589 1590 1592 1592 1593 1594 1595 1595 1596 1596 1597 1597 1597 1598 1598 1598 1599 1600 1600 1600 1600 1600 1601 1601 1602 1602 1603 1603
1570 1572 1574 1576 1577 1579 1580 1581 1583 1583 1584 1585 1586 1587 1588 1589 1590 1591 1592 1593 1594 1595 1595 1596 1596 1596 1597 1597 1598 1598 1598 1599 1599 1599 1599 1600 1600 1601 1601 1602 1602 1603
1569 1571 1573 1575 1577 1578 1579 1581 1582 1582 1583 1584 1585 1586 1587 1588 1589 1590 1592 1593 1594 1594 1594 1595 1595 1596 1596 1596 1597 1598 1598 1598 1598 1598 1598 1599 1599 1600 1600 1601 1601 1602
1568 1570 1572 1574 1576 1577 1578 1579 1580 1581 1582 1583 1584 1585 1586 1587 1588 1589 1590 1592 1593 1593 1594 1594 1595 1595 1596 1596 1597 1597 1597 1597 1597 1597 1598 1598 1599 1599 1599 1600 1601 1601
1567 1569 1571 1573 1574 1576 1577 1578 1579 1580 1581 1583 1584 1584 1585 1586 1587 1588 1589 1590 1591 1592 1593 1594 1594 1594 1595 1595 1596 1596 1596 1597 1597 1597 1597 1598 1598 1598 1599 1599 1600 1600
1566 1568 1570 1572 1573 1575 1576 1577 1578 1579 1581 1582 1583 1583 1584 1585 1587 1587 1588 1589 1590 1591 1592 1593 1593 1593 1594 1594 1595 1595 1595 1596 1596 1596 1597 1597 1597 1598 1598 1599 1599 1599
1566 1567 1569 1571 1572 1574 1575 1577 1578 1578 1580 1581 1581 1582 1583 1584 1586 1587 1588 1588 1589 1590 1591 1592 1592 1593 1593 1594 1594 1594 1595 1595 1595 1595 1596 1596 1597 1597 1597 1598 1598 1598
1565 1566 1568 1570 1571 1573 1574 1576 1577 1578 1578 1579 1580 1581 1582 1583 1585 1586 1587 1587 1588 1589 1590 1590 1591 1592 1593 1593 1593 1593 1594 1594 1595 1595 1595 1596 1596 1596 1596 1597 1597 1597
1565 1566 1567 1569 1570 1572 1573 1575 1576 1577 1577 1578 1579 1580 1581 1582 1583 1584 1585 1587 1587 1588 1589 1589 1590 1591 1592 1592 1593 1593 1593 1594 1594 1594 1595 1595 1595 1596 1596 1596 1596 1597
1564 1565 1566 1567 1569 1571 1572 1574 1575 1576 1577 1577 1578 1579 1580 1581 1582 1583 1584 1585 1586 1587 1588 1589 1589 1590 1591 1592 1592 1592 1592 1593 1593 1593 1594 1594 1595 1595 1595 1596 1596 1596
1562 1564 1565 1566 1568 1569 1571 1572 1573 1575 1576 1576 1576 1578 1579 1580 1581 1582 1583 1584 1585 1586 1587 1588 1588 1589 1590 1591 1591 1591 1592 1592 1592 1593 1593 1594 1594 1595 1595 1595 1595 1596
1560 1562 1564 1565 1566 1568 1569 1571 1572 1573 1575 1575 1575 1576 1577 1579 1579 1581 1582 1583 1584 1585 1586 1587 1587 1588 1589 1590 1590 1591 1591 1591 1592 1592 1593 1593 1594 1594 1594 1594 1595 1595
1558 1561 1562 1564 1565 1566 1568 1569 1570 1572 1573 1574 1574 1574 1576 1577 1578 1579 1580 1581 1582 1583 1584 1585 1586 1587 1588 1589 1590 1590 1590 1591 1591 1591 1592 1592 1593 1593 1593 1593 1594 1594
1557 1559 1561 1562 1563 1565 1566 1567 1569 1570 1571 1573 1573 1573 1574 1575 1576 1578 1579 1580 1581 1582 1583 1584 1585 1586 1586 1587 1588 1589 1589 1590 1590 1590 1591 1591 1592 1592 1592 1592 1592 1593
1555 1556 1558 1559 1561 1562 1564 1565 1567 1568 1569 1570 1571 1572 1573 1574 1575 1576 1577 1579 1580 1580 1582 1583 1584 1584 1585 1586 1587 1588 1588 1589 1589 1589 1590 1590 1591 1591 1591 1591 1591 1592
1553 1554 1555 1557 1558 1560 1562 1563 1565 1566 1567 1568 1569 1570 1571 1572 1573 1574 1575 1577 1578 1579 1581 1582 1582 1583 1583 1585 1586 1586 1587 1588 1588 1588 1588 1588 1589 1590 1590 1590 1590 1590
1551 1552 1554 1555 1557 1558 1560 1561 1563 1565 1566 1567 1567 1568 1569 1569 1570 1572 1574 1575 1576 1577 1579 1580 1581 1582 1582 1583 1584 1585 1586 1587 1587 1588 1587 1587 1588 1588 1589 1589 1589 1589
1550 1551 1552 1553 1556 1557 1558 1560 1562 1563 1564 1565 1566 1566 1567 1568 1569 1570 1572 1573 1574 1575 1577 1578 1578 1579 1580 1581 1583 1584 1585 1586 1586 1586 1586 1586 1587 1587 1587 1588 1588 1588
1548 1549 1550 1552 1554 1556 1557 1557 1559 1560 1562 1563 1564 1564 1566 1566 1567 1568 1569 1571 1572 1573 1574 1574 1573 1575 1578 1579 1580 1581 1583 1584 1584 1584 1584 1585 1585 1586 1586 1587 1587 1587
1545 1546 1547 1549 1552 1553 1554 1555 1556 1557 1559 1560 1560 1562 1563 1564 1565 1566 1567 1569 1570 1570 1571 1571 1570 1573 1576 1577 1577 1578 1580 1582 1582 1582 1582 1583 1583 1584 1585 1585 1585 1585
1541 1542 1543 1546 1548 1550 1551 1553 1553 1554 1555 1556 1557 1558 1559 1560 1562 1564 1565 1566 1566 1567 1568 1569 1569 1571 1573 1575 1576 1576 1578 1580 1580 1580 1580 1580 1581 1582 1582 1582 1581 1581
1539 1540 1541 1543 1545 1547 1548 1549 1549 1550 1551 1552 1553 1554 1555 1557 1558 1559 1561 1562 1563 1564 1565 1566 1568 1570 1571 1572 1574 1575 1576 1577 1578 1578 1578 1578 1579 1579 1579 1579 1578 1578
1538 1538 1540 1541 1542 1544 1545 1546 1546 1547 1547 1549 1550 1551 1552 1553 1554 1555 1557 1559 1560 1561 1562 1564 1566 1567 1569 1570 1571 1572 1574 1575 1575 1576 1576 1576 1576 1576 1576 1576 1576 1576
1538 1538 1538 1539 1540 1542 1543 1543 1543 1544 1545 1547 1548 1548 1549 1550 1551 1552 1554 1555 1556 1558 1559 1561 1562 1564 1566 1568 1569 1569 1570 1572 1573 1573 1574 1574 1574 1573 1574 1574 1574 1574
1539 1538 1538 1539 1540 1541 1542 1542 1542 1543 1544 1545 1546 1546 1547 1548 1548 1549 1550 1551 1552 1554 1555 1557 1559 1562 1564 1565 1566 1567 1568 1569 1570 1571 1571 1571 1571 1571 1571 1571 1572 1572